[[{"header":{"parameterUnit":"m.s-1","parameterCategory":1,"la1":30.2991,"la2":30.254,"lo1":-89.0895,"lo2":-89.0444,"dy":0.0017,"dx":0.0017,"nx":28,"ny":28,"refTime":"2025-06-19T21:00:00:Z","depth":0,"parameterNumber":2,"parameterNumberName":"U-component_of_WINDS"},"data":[0,0,0,0,0,0,0,0,0,0,0,0,0,0,0,0,0,0,0,0,0,0,0,0,0,0,0,0,0,0,0,0,0,0,0,0,0,0,0,0,0,0,0,0,0,0,0,0,0,0,0,0,0,0,0,0,0,0,0.8123,0.8123,0,0.817,0.8171,0.8171,0.8094,0.8092,0.8089,0.8086,0.814,0.8143,0.8147,0,0,0,0,0,0,0,0,0,0,0,0,0,0.7969,0.7972,0.8123,0.8123,0.8124,0.817,0.8171,0.8171,0.8095,0.8091,0.8088,0.8085,0.8138,0.8143,0.8148,0,0,0,0,0,0,0,0,0,0,0,0,0,0.8028,0.7973,0.8123,0.8091,0.8089,0.817,0.8171,0.8172,0.8095,0.8091,0.8087,0.8084,0.8137,0.8143,0.8148,0.8264,0,0,0.8166,0.8169,0,0,0,0,0,0,0,0,0.8025,0.8034,0.8095,0.8093,0.8091,0.8122,0.8136,0.8203,0.8096,0.8093,0.8086,0.8082,0.8137,0.8143,0.8161,0.8267,0.8269,0.8167,0.817,0.8173,0.8174,0,0,0,0,0,0,0,0.8021,0.8031,0.8142,0.8096,0.8093,0.8076,0.808,0.8148,0.8137,0.8093,0.8087,0.8094,0.8135,0.8155,0.8161,0.827,0.8166,0.8172,0.8175,0.8178,0.8471,0.8475,0,0,0,0,0,0,0.802,0.8028,0.814,0.8143,0.8047,0.8082,0.8086,0.8116,0.8136,0.8135,0.8097,0.809,0.8147,0.8155,0.8163,0.8298,0.8173,0.8178,0.8182,0.8467,0.8472,0.8477,0,0,0,0,0,0,0.8017,0.8031,0.8138,0.8084,0.8096,0.8088,0.8123,0.8119,0.8139,0.8139,0.8137,0.8119,0.8144,0.8155,0.8239,0.8299,0.8181,0.8186,0.8462,0.8469,0.8475,0.857,0,0,0,0,0,0,0.8013,0.803,0.8073,0.8086,0.81,0.8212,0.8127,0.8123,0.8148,0.814,0.8159,0.8159,0.8142,0.823,0.8245,0.8305,0.8191,0.8456,0.8465,0.8473,0.8562,0.8579,0.8594,0,0,0,0,0,0.8008,0.81,0.8076,0.809,0.8153,0.8216,0.8224,0.8201,0.8154,0.8197,0.8197,0.8158,0.829,0.824,0.8255,0.8318,0.8453,0.8463,0.8472,0.8554,0.8576,0.8594,0,0,0,0,0,0,0.8096,0.8101,0.8074,0.8173,0.8194,0.8203,0.8257,0.8225,0.8262,0.8252,0.8224,0.8229,0.8319,0.8327,0.8271,0.843,0.8364,0.8377,0.8421,0.8441,0.8457,0.8453,0.8196,0,0,0,0,0,0.8127,0.8176,0.8178,0.8265,0.8277,0.8265,0.8292,0.8272,0.8294,0.8303,0.831,0.8334,0.838,0.8412,0.8455,0.8563,0.8566,0.8614,0.863,0.8643,0.8655,0.8711,0.8732,0.8509,0.8509,0.8508,0,0,0.8191,0.82,0.8233,0.8283,0.8297,0.8349,0.8273,0.8333,0.8371,0.8313,0.8391,0.8397,0.8422,0.8518,0.8561,0.8528,0.8717,0.8656,0.8666,0.867,0.8723,0.8744,0.8763,0.8515,0.8514,0.8513,0,0,0.8334,0.8346,0.8418,0.8434,0.8456,0.8448,0.8466,0.8479,0.848,0.8558,0.8515,0.8562,0.8643,0.8661,0.8682,0.8832,0.8797,0.8847,0.8931,0.8986,0.9004,0.9019,0.9071,0.909,0.8859,0.8859,0.8859,0,0.8411,0.8487,0.846,0.8521,0.8544,0.8493,0.8566,0.8583,0.8619,0.8637,0.8599,0.8699,0.8712,0.8811,0.8847,0.8866,0.8885,0.8844,0.9003,0.9018,0.9032,0.9081,0.9101,0.8865,0.8864,0.8863,0.8863,0,0.8579,0.8633,0.8689,0.8723,0.8752,0.882,0.8804,0.8838,0.8816,0.8812,0.8892,0.8906,0.895,0.8973,0.8954,0.9069,0.9048,0.9008,0.894,0.906,0.9105,0.9124,0.8873,0.8871,0.8869,0.8868,0,0,0.8778,0.8796,0.8817,0.883,0.8851,0.8893,0.8958,0.8999,0.9028,0.9055,0.9109,0.9178,0.9141,0.9164,0.9146,0.9195,0.931,0.9148,0.9148,0.9176,0.9437,0.9465,0.9488,0.9288,0.9292,0.9294,0.9434,0,0.8918,0.9028,0.9006,0.9115,0.9163,0.9115,0.9172,0.9191,0.919,0.9231,0.923,0.9279,0.9226,0.924,0.9286,0.9287,0.9362,0.9277,0.9337,0.934,0.933,0.9512,0.9542,0.9673,0.9452,0.9455,0.9457,0,0.9096,0.9127,0.924,0.9252,0.9271,0.9322,0.9358,0.9399,0.942,0.9415,0.9441,0.9414,0.9479,0.9412,0.9502,0.9444,0.9468,0.9472,0.9476,0.948,0.9404,0.9518,0.9715,0.9734,0.9485,0.9483,0.9481,0,0.9226,0.9298,0.9373,0.9387,0.9404,0.944,0.9449,0.9467,0.9493,0.9525,0.9541,0.9582,0.9603,0.9636,0.962,0.9573,0.9712,0.9644,0.971,0.971,0.9739,0.9737,0.9941,0.9759,0.9759,0.9758,0.9758,0,0.9384,0.9454,0.9432,0.9478,0.9556,0.9531,0.9608,0.9612,0.9628,0.9674,0.9637,0.9682,0.966,0.9704,0.9693,0.9767,0.9778,0.9776,0.9772,0.9778,0.9778,0.9792,0.9782,0.9763,0.9762,0.9761,0.976,0,0.9541,0.953,0.9609,0.9618,0.9622,0.9678,0.9686,0.973,0.9725,0.9785,0.9798,0.9791,0.9841,0.9829,0.9884,0.9876,0.997,0.9955,0.9962,0.9957,1.0023,1.0016,1.0241,1.0268,1.007,1.0072,1.0074,0,0.9641,0.9694,0.9708,0.9736,0.9747,0.9793,0.9819,0.9797,0.9826,0.9854,0.9894,0.994,0.9975,1.0057,1.0057,1.0099,1.0084,1.016,1.009,1.0094,1.0083,1.0079,1.0083,1.0173,1.0175,1.0177,1.0179,0,0.9819,0.981,0.9848,0.9885,0.9916,0.9945,0.9969,0.9995,0.9975,1.0009,1.0058,1.0086,1.014,1.0186,1.0224,1.0234,1.0204,1.0201,1.0218,1.0224,1.0224,1.0223,0.9997,1.0195,1.0194,1.0192,1.0192,1.0191,0.9949,0.9993,1.0009,1.0053,1.0069,1.0093,1.0134,1.0134,1.0174,1.0216,1.0201,1.0257,1.0277,1.0325,1.034,1.0384,1.0355,1.0381,1.0387,1.0393,1.0399,1.0219,1.0391,1.0391,1.039,1.039,1.039,0,1.0123,1.0131,1.0172,1.0206,1.0241,1.0208,1.0234,1.0265,1.0314,1.0335,1.037,1.0426,1.047,1.0475,1.0516,1.0551,1.0537,1.0562,1.0558,1.0561,1.0424,1.0404,1.0572,1.0572,1.0572,1.0572,1.0572,1.0572,1.0217,1.0289,1.0282,1.0362,1.037,1.0423,1.044,1.0462,1.0478,1.0542,1.0578,1.0581,1.0595,1.0637,1.0676,1.0677,1.0693,1.0723,1.0718,1.0589,1.0571,1.0553,1.0534,1.0727,1.0727,1.0851,1.0852,1.0853]},{"header":{"parameterUnit":"m.s-1","parameterCategory":1,"la1":30.2991,"la2":30.254,"lo1":-89.0895,"lo2":-89.0444,"dy":0.0017,"dx":0.0017,"nx":28,"ny":28,"refTime":"2025-06-19T21:00:00:Z","depth":0,"parameterNumber":3,"parameterNumberName":"V-component_of_WINDS"},"data":[0,0,0,0,0,0,0,0,0,0,0,0,0,0,0,0,0,0,0,0,0,0,0,0,0,0,0,0,0,0,0,0,0,0,0,0,0,0,0,0,0,0,0,0,0,0,0,0,0,0,0,0,0,0,0,0,0,0,3.3572,3.3571,0,3.3466,3.3465,3.3464,3.3256,3.3252,3.3248,3.3244,3.314,3.3142,3.3143,0,0,0,0,0,0,0,0,0,0,0,0,0,3.3599,3.36,3.3572,3.357,3.3569,3.3466,3.3465,3.3463,3.3257,3.3252,3.3247,3.3242,3.314,3.3141,3.3143,0,0,0,0,0,0,0,0,0,0,0,0,0,3.355,3.36,3.3572,3.3453,3.3442,3.3466,3.3465,3.3463,3.3258,3.3252,3.3245,3.324,3.314,3.3141,3.3143,3.3276,0,0,3.3148,3.3148,0,0,0,0,0,0,0,0,3.3553,3.3549,3.3472,3.3462,3.3449,3.3368,3.3436,3.34,3.3259,3.3328,3.3244,3.3237,3.3221,3.3216,3.321,3.3271,3.3266,3.3148,3.3149,3.315,3.315,0,0,0,0,0,0,0,3.3557,3.3553,3.353,3.3471,3.3457,3.3407,3.3393,3.3428,3.3311,3.3321,3.3306,3.3296,3.3214,3.3209,3.3206,3.3265,3.3148,3.3149,3.315,3.3151,3.3429,3.3435,0,0,0,0,0,0,3.3577,3.3557,3.3533,3.3527,3.3487,3.3412,3.3396,3.34,3.331,3.329,3.3301,3.3287,3.3209,3.3204,3.3201,3.3349,3.315,3.3151,3.3152,3.3422,3.343,3.3437,0,0,0,0,0,0,3.3578,3.3577,3.3537,3.3537,3.3529,3.3418,3.3424,3.3401,3.3395,3.3294,3.3273,3.3318,3.3204,3.3199,3.3258,3.3343,3.3152,3.3153,3.3415,3.3425,3.3433,3.3648,0,0,0,0,0,0,3.358,3.3578,3.3627,3.354,3.3529,3.3596,3.3429,3.3404,3.3398,3.3378,3.3304,3.3286,3.3199,3.3257,3.326,3.3342,3.3154,3.3406,3.3419,3.343,3.3633,3.3664,3.3691,0,0,0,0,0,3.3581,3.3693,3.363,3.3629,3.3587,3.3601,3.3595,3.3491,3.3406,3.3454,3.3389,3.3288,3.3334,3.3265,3.3266,3.335,3.3401,3.3416,3.343,3.362,3.3658,3.369,0,0,0,0,0,0,3.3794,3.3679,3.3609,3.3695,3.3659,3.3566,3.3623,3.3535,3.3523,3.3505,3.3379,3.3364,3.344,3.3401,3.3326,3.3473,3.3351,3.3367,3.3496,3.3531,3.3559,3.3566,3.3156,0,0,0,0,0,3.3851,3.387,3.3769,3.3855,3.384,3.3736,3.3738,3.3661,3.3619,3.3603,3.3542,3.3507,3.3513,3.352,3.352,3.3627,3.3607,3.3685,3.3714,3.3738,3.3753,3.3805,3.3838,3.3484,3.3484,3.3484,0,0,3.3968,3.3908,3.3928,3.3896,3.3859,3.3882,3.3724,3.3756,3.3772,3.3609,3.3659,3.3614,3.3567,3.365,3.3684,3.362,3.3846,3.3757,3.3777,3.3778,3.3824,3.3857,3.3887,3.3494,3.3492,3.3491,0,0,3.4194,3.4151,3.4216,3.4182,3.4128,3.4057,3.4074,3.3994,3.3957,3.4006,3.3883,3.3902,3.3915,3.3886,3.3873,3.4088,3.3994,3.4092,3.4242,3.4295,3.4322,3.4346,3.4422,3.4451,3.4107,3.4108,3.4108,0,3.4347,3.4376,3.4262,3.4301,3.4291,3.4142,3.4208,3.4182,3.4132,3.4128,3.4057,3.407,3.4028,3.4101,3.4154,3.4149,3.4164,3.4099,3.4327,3.435,3.4371,3.4442,3.4471,3.412,3.4118,3.4117,3.4116,0,3.4566,3.4589,3.4649,3.4601,3.4598,3.4652,3.4547,3.4557,3.4482,3.4419,3.4471,3.4415,3.4401,3.4413,3.434,3.4477,3.4438,3.435,3.4224,3.4419,3.4483,3.4509,3.4137,3.4133,3.4129,3.4126,0,0,3.4921,3.481,3.4834,3.4811,3.474,3.4756,3.4803,3.4787,3.4798,3.4769,3.4805,3.482,3.4736,3.4722,3.4645,3.4691,3.4864,3.4596,3.4593,3.4647,3.501,3.5076,3.511,3.4802,3.4807,3.4811,3.5014,0,3.513,3.5201,3.51,3.5195,3.5214,3.5073,3.5114,3.5076,3.502,3.5029,3.4966,3.4978,3.4868,3.4858,3.4899,3.4835,3.4935,3.4819,3.4834,3.4836,3.4849,3.5143,3.5213,3.5408,3.5038,3.5042,3.5045,0,3.5382,3.5363,3.5459,3.5382,3.5386,3.5424,3.5401,3.5412,3.5366,3.5322,3.5306,3.5213,3.5254,3.5134,3.5189,3.5113,3.5113,3.5083,3.5088,3.5084,3.4952,3.5146,3.5467,3.5496,3.5084,3.5081,3.5078,0,3.5629,3.5629,3.5685,3.567,3.5582,3.5612,3.5577,3.5525,3.5522,3.5503,3.5499,3.5487,3.548,3.5473,3.5379,3.53,3.5446,3.5318,3.541,3.5413,3.5446,3.5445,3.577,3.545,3.5449,3.5449,3.5448,0,3.5872,3.5936,3.5795,3.583,3.5897,3.5782,3.5853,3.5804,3.5759,3.5783,3.5662,3.5687,3.5563,3.5575,3.5503,3.5559,3.5557,3.5523,3.5502,3.5533,3.5537,3.553,3.5514,3.5456,3.5454,3.5453,3.5452,0,3.6158,3.6067,3.6119,3.6031,3.6011,3.6065,3.599,3.6019,3.5955,3.5987,3.5988,3.5888,3.5895,3.5802,3.5793,3.5744,3.5833,3.579,3.5848,3.5834,3.5931,3.5922,3.6262,3.63,3.5958,3.5961,3.5964,0,3.6318,3.6363,3.628,3.6287,3.6257,3.627,3.6265,3.6155,3.6156,3.6107,3.6143,3.6141,3.6133,3.6152,3.608,3.6072,3.6026,3.6146,3.6024,3.6053,3.6026,3.6024,3.6028,3.6171,3.6176,3.6179,3.6182,0,3.661,3.6563,3.656,3.6543,3.6541,3.6523,3.6496,3.6509,3.6388,3.6396,3.6402,3.6396,3.6385,3.6385,3.6363,3.6328,3.6236,3.6221,3.6241,3.6272,3.6303,3.6286,3.5916,3.6213,3.621,3.6208,3.6206,3.6205,3.6836,3.687,3.6817,3.6819,3.6787,3.6765,3.6788,3.6727,3.6729,3.6711,3.6646,3.6664,3.6617,3.6578,3.6551,3.6564,3.6506,3.6536,3.6543,3.6552,3.657,3.6303,3.656,3.6559,3.6558,3.6557,3.6556,0,3.7121,3.708,3.7083,3.7049,3.7051,3.6963,3.693,3.6937,3.6954,3.6918,3.6912,3.6919,3.6918,3.6846,3.6836,3.686,3.6818,3.6862,3.6858,3.6851,3.6623,3.6605,3.6896,3.6896,3.6896,3.6896,3.6896,3.6896,3.7269,3.7321,3.7268,3.7303,3.7262,3.7277,3.7265,3.7245,3.7215,3.7228,3.7226,3.7179,3.7128,3.7114,3.7109,3.7088,3.7089,3.7148,3.7112,3.69,3.6867,3.6836,3.6818,3.7149,3.715,3.7339,3.7341,3.7342]}]]